When you browse on this site, cookies collect data to enhance your experience and personalize the content and advertising you see.
Visit our Privacy Policy to learn more. By continuing to use the site, you agree to this use of cookies and data.
  • In Hungary
  • List of Countries
  • For 7 days
  • Water Temperature
  • Satellite Maps
  • Weather Map
  • News
  • Weather Widgets
  • user-avatar
    Login

    Hourly Weather Tahoua

    Today, 18 January, Friday

    Time Temperature Precipitation Wind Pressure Humidity
    00:00 +23°C° 0 mm 4 mps 727 mmHg 7%
    01:00 +22°C° 0 mm 4 mps 727 mmHg 7%
    02:00 +22°C° 0 mm 4 mps 726 mmHg 7%
    03:00 +22°C° 0 mm 4 mps 726 mmHg 8%
    04:00 +21°C° 0 mm 4 mps 726 mmHg 8%
    05:00 +21°C° 0 mm 4 mps 726 mmHg 8%
    06:00 +21°C° 0 mm 4 mps 726 mmHg 9%
    07:00 +23°C° 0 mm 5 mps 727 mmHg 8%
    08:00 +27°C° 0 mm 6 mps 727 mmHg 7%
    09:00 +29°C° 0 mm 6 mps 727 mmHg 7%
    10:00 +32°C° 0 mm 6 mps 727 mmHg 6%
    11:00 +35°C° 0 mm 6 mps 727 mmHg 6%
    12:00 +36°C° 0 mm 7 mps 727 mmHg 6%
    13:00 +38°C° 0 mm 6 mps 726 mmHg 6%
    14:00 +37°C° 0 mm 5 mps 726 mmHg 6%
    15:00 +39°C° 0 mm 5 mps 726 mmHg 6%
    16:00 +36°C° 0 mm 4 mps 726 mmHg 7%
    17:00 +33°C° 0 mm 4 mps 726 mmHg 9%
    18:00 +30°C° 0 mm 4 mps 726 mmHg 10%
    19:00 +29°C° 0 mm 4 mps 726 mmHg 10%
    20:00 +28°C° 0 mm 4 mps 726 mmHg 11%
    21:00 +28°C° 0 mm 4 mps 727 mmHg 11%
    22:00 +27°C° 0 mm 4 mps 726 mmHg 11%
    23:00 +27°C° 0 mm 4 mps 726 mmHg 12%

    Tomorrow, 19 January, Saturday

    Time Temperature Precipitation Wind Pressure Humidity
    00:00 +26°C° 0 mm 4 mps 726 mmHg 12%
    01:00 +26°C° 0 mm 5 mps 726 mmHg 12%
    02:00 +25°C° 0 mm 5 mps 726 mmHg 12%
    03:00 +25°C° 0 mm 5 mps 726 mmHg 13%
    04:00 +23°C° 0 mm 5 mps 726 mmHg 13%
    05:00 +23°C° 0 mm 5 mps 726 mmHg 13%
    06:00 +23°C° 0 mm 5 mps 726 mmHg 13%
    07:00 +26°C° 0 mm 6 mps 726 mmHg 12%
    08:00 +29°C° 0 mm 6 mps 727 mmHg 11%
    09:00 +32°C° 0 mm 7 mps 727 mmHg 9%
    10:00 +34°C° 0 mm 7 mps 727 mmHg 9%
    11:00 +36°C° 0 mm 7 mps 727 mmHg 9%
    12:00 +39°C° 0 mm 7 mps 727 mmHg 8%
    13:00 +39°C° 0 mm 7 mps 726 mmHg 8%
    14:00 +40°C° 0 mm 6 mps 725 mmHg 8%
    15:00 +40°C° 0 mm 6 mps 725 mmHg 8%
    16:00 +37°C° 0 mm 4 mps 725 mmHg 10%
    17:00 +34°C° 0 mm 3 mps 725 mmHg 11%
    18:00 +30°C° 0 mm 2 mps 725 mmHg 13%
    19:00 +30°C° 0 mm 2 mps 725 mmHg 14%
    20:00 +29°C° 0 mm 2 mps 725 mmHg 15%
    21:00 +28°C° 0 mm 1 mps 726 mmHg 16%
    22:00 +27°C° 0 mm 2 mps 726 mmHg 16%
    23:00 +27°C° 0 mm 3 mps 726 mmHg 16%

    Day after tomorrow, 20 January, Sunday

    Time Temperature Precipitation Wind Pressure Humidity
    00:00 +27°C° 0 mm 4 mps 726 mmHg 17%
    01:00 +26°C° 0 mm 5 mps 726 mmHg 16%
    02:00 +25°C° 0 mm 5 mps 726 mmHg 16%
    03:00 +24°C° 0 mm 6 mps 726 mmHg 16%
    04:00 +23°C° 0 mm 6 mps 726 mmHg 18%
    05:00 +22°C° 0 mm 6 mps 726 mmHg 19%
    06:00 +21°C° 0 mm 5 mps 727 mmHg 21%
    07:00 +23°C° 0 mm 6 mps 727 mmHg 18%
    08:00 +24°C° 0 mm 7 mps 728 mmHg 16%
    09:00 +27°C° 0 mm 7 mps 729 mmHg 13%
    10:00 +29°C° 0 mm 7 mps 728 mmHg 12%
    11:00 +32°C° 0 mm 6 mps 728 mmHg 10%
    12:00 +34°C° 0 mm 5 mps 727 mmHg 9%
    13:00 +35°C° 0 mm 5 mps 727 mmHg 8%
    14:00 +35°C° 0 mm 4 mps 726 mmHg 8%
    15:00 +36°C° 0 mm 4 mps 725 mmHg 8%
    16:00 +34°C° 0 mm 4 mps 726 mmHg 8%
    17:00 +33°C° 0 mm 4 mps 726 mmHg 9%
    18:00 +30°C° 0 mm 4 mps 726 mmHg 9%
    19:00 +29°C° 0 mm 4 mps 727 mmHg 9%
    20:00 +28°C° 0 mm 4 mps 727 mmHg 9%
    21:00 +27°C° 0 mm 4 mps 727 mmHg 9%
    22:00 +27°C° 0 mm 4 mps 727 mmHg 8%
    23:00 +26°C° 0 mm 4 mps 727 mmHg 8%

    21 January, Monday

    Time Temperature Precipitation Wind Pressure Humidity
    00:00 +26°C° 0 mm 4 mps 727 mmHg 8%
    01:00 +25°C° 0 mm 4 mps 727 mmHg 7%
    02:00 +25°C° 0 mm 4 mps 726 mmHg 6%
    03:00 +25°C° 0 mm 5 mps 726 mmHg 6%
    04:00 +23°C° 0 mm 4 mps 726 mmHg 6%
    05:00 +22°C° 0 mm 4 mps 726 mmHg 6%
    06:00 +21°C° 0 mm 4 mps 726 mmHg 6%
    07:00 +23°C° 0 mm 4 mps 727 mmHg 6%
    08:00 +26°C° 0 mm 5 mps 728 mmHg 6%
    09:00 +28°C° 0 mm 5 mps 728 mmHg 6%
    10:00 +30°C° 0 mm 4 mps 728 mmHg 5%
    11:00 +33°C° 0 mm 3 mps 727 mmHg 5%
    12:00 +35°C° 0 mm 2 mps 727 mmHg 5%
    13:00 +35°C° 0 mm 2 mps 726 mmHg 5%
    14:00 +36°C° 0 mm 2 mps 726 mmHg 5%
    15:00 +37°C° 0 mm 2 mps 725 mmHg 6%
    16:00 +35°C° 0 mm 3 mps 725 mmHg 6%
    17:00 +33°C° 0 mm 3 mps 725 mmHg 7%
    18:00 +30°C° 0 mm 3 mps 725 mmHg 8%
    19:00 +29°C° 0 mm 3 mps 726 mmHg 8%
    20:00 +28°C° 0 mm 3 mps 726 mmHg 8%
    21:00 +27°C° 0 mm 3 mps 727 mmHg 8%
    22:00 +26°C° 0 mm 3 mps 726 mmHg 8%
    23:00 +26°C° 0 mm 3 mps 726 mmHg 9%

    22 January, Tuesday

    Time Temperature Precipitation Wind Pressure Humidity
    00:00 +25°C° 0 mm 2 mps 726 mmHg 9%
    01:00 +25°C° 0 mm 2 mps 726 mmHg 9%
    02:00 +24°C° 0 mm 2 mps 725 mmHg 9%
    03:00 +24°C° 0 mm 2 mps 725 mmHg 9%
    04:00 +24°C° 0 mm 2 mps 725 mmHg 9%
    05:00 +23°C° 0 mm 2 mps 725 mmHg 9%
    06:00 +23°C° 0 mm 2 mps 726 mmHg 9%
    07:00 +26°C° 0 mm 2 mps 726 mmHg 8%
    08:00 +28°C° 0 mm 2 mps 727 mmHg 7%
    09:00 +30°C° 0 mm 2 mps 728 mmHg 6%
    10:00 +32°C° 0 mm 2 mps 727 mmHg 6%
    11:00 +34°C° 0 mm 2 mps 727 mmHg 5%
    12:00 +36°C° 0 mm 2 mps 726 mmHg 5%
    13:00 +37°C° 0 mm 3 mps 726 mmHg 5%
    14:00 +37°C° 0 mm 5 mps 725 mmHg 5%
    15:00 +39°C° 0 mm 6 mps 724 mmHg 6%
    16:00 +36°C° 0 mm 5 mps 724 mmHg 6%
    17:00 +33°C° 0 mm 4 mps 724 mmHg 7%
    18:00 +30°C° 0 mm 4 mps 725 mmHg 8%
    19:00 +29°C° 0 mm 3 mps 725 mmHg 8%
    20:00 +28°C° 0 mm 3 mps 725 mmHg 8%
    21:00 +27°C° 0 mm 3 mps 726 mmHg 8%
    22:00 +26°C° 0 mm 3 mps 726 mmHg 8%
    23:00 +26°C° 0 mm 3 mps 725 mmHg 8%

    23 January, Wednesday

    Time Temperature Precipitation Wind Pressure Humidity
    00:00 +25°C° 0 mm 2 mps 725 mmHg 8%
    01:00 +25°C° 0 mm 3 mps 725 mmHg 8%
    02:00 +24°C° 0 mm 3 mps 725 mmHg 8%
    03:00 +24°C° 0 mm 3 mps 724 mmHg 8%
    04:00 +22°C° 0 mm 4 mps 725 mmHg 8%
    05:00 +22°C° 0 mm 4 mps 725 mmHg 7%
    06:00 +21°C° 0 mm 4 mps 725 mmHg 7%
    07:00 +23°C° 0 mm 4 mps 726 mmHg 6%
    08:00 +26°C° 0 mm 5 mps 727 mmHg 5%
    09:00 +29°C° 0 mm 5 mps 727 mmHg 4%
    10:00 +30°C° 0 mm 6 mps 727 mmHg 4%
    11:00 +33°C° 0 mm 6 mps 726 mmHg 4%
    12:00 +35°C° 0 mm 7 mps 726 mmHg 4%
    13:00 +35°C° 0 mm 7 mps 725 mmHg 4%
    14:00 +35°C° 0 mm 7 mps 725 mmHg 5%
    15:00 +36°C° 0 mm 7 mps 724 mmHg 5%
    16:00 +34°C° 0 mm 6 mps 724 mmHg 5%
    17:00 +30°C° 0 mm 5 mps 725 mmHg 6%
    18:00 +28°C° 0 mm 4 mps 725 mmHg 7%
    19:00 +27°C° 0 mm 4 mps 725 mmHg 7%
    20:00 +26°C° 0 mm 4 mps 726 mmHg 7%
    21:00 +25°C° 0 mm 4 mps 726 mmHg 7%
    22:00 +23°C° 0 mm 4 mps 726 mmHg 7%
    23:00 +22°C° 0 mm 4 mps 726 mmHg 7%
    Show more